Location: Newark
(12.4436°N, 0.6167°W)
Time: 19:47:43
(UTC+00:00)

Vanguard 1 - Pass Details

Date: 16 December 2019
Orbit: 651 x 3832 km, 34.2° (Epoch: 22 January)

Event Time Altitude Azimuth Distance (km) Brightness Sun altitude
Rises 04:57:44 0° 285° (WNW) 7,643 - -18.5°
Reaches altitude 10° 05:03:38 10° 293° (WNW) 6,825 - -17.2°
Exits shadow 05:08:01 18° 301° (WNW) 6,250 13.5 -16.2°
Maximum altitude 05:24:44 38° 356° (N) 4,728 13.3 -12.4°
Drops below altitude 10° 05:41:36 10° 60° (ENE) 5,547 14.4 -8.6°
Sets 05:45:44 0° 68° (ENE) 6,157 14.9 -7.6°
